Location: Makakahi
(40.6833°S, 175.6000°E)
Time: 23:05:33
(UTC+00:00)

FENGYUN 1C DEB - Pass Details

Date: 13 December 2024
Orbit: 812 x 877 km, 98.8° (Epoch: 19 January)

Event Time Altitude Azimuth Distance (km) Brightness Sun altitude
Rises 08:53:59 0° 165° (SSE) 3,389 ? -11.3°
Reaches altitude 10° 08:56:21 10° 162° (SSE) 2,456 ? -11.6°
Maximum altitude 09:01:48 72° 77° (ENE) 888 ? -12.3°
Drops below altitude 10° 09:07:15 10° 353° (N) 2,466 ? -13.1°
Enters shadow 09:08:58 - 351° (N) 3,138 ? -13.3°
